Change the Weather History Date:

Saturday, August 9, 2014

  Actual Average Record
Temperature  
Mean Temperature 74 °F 75 °F  
Max Temperature 80 °F 85 °F 106 °F (1934)
Min Temperature 68 °F 66 °F 46 °F (1888)
Degree Days  
Heating Degree Days 0 0  
Month to date heating degree days 0 0  
Since 1 June heating degree days 2 18  
Since 1 July heating degree days 2 1  
Cooling Degree Days 9 10  
Month to date cooling degree days 82 97  
Year to date cooling degree days 722 743  
Since 1 June cooling degree days 591 667  
Growing Degree Days 24 (Base 50)    
Moisture  
Dew Point 64 °F    
Average Humidity 73    
Maximum Humidity 87    
Minimum Humidity 58    
Precipitation  
Precipitation T in 0.13 in 2.20 in (1889)
Month to date precipitation 1.89 1.21  
Year to date precipitation 22.90 23.80  
Snow  
Snow 0.00 in 0.00 in - ()
Month to date snowfall 0.0 0.0  
Since 1 June snowfall 0.0 0.0  
Since 1 July snowfall 0.0 0.0  
Snow Depth 0.00 in    
Sea Level Pressure  
Sea Level Pressure 30.02 in    
Wind  
Wind Speed 6 mph (East)    
Max Wind Speed 13 mph    
Max Gust Speed 16 mph    
Visibility 9 miles    
Events      
T = Trace of Precipitation, MM = Missing Value Source: NWS Daily Summary

Daily Weather History Graph

Daily Weather History Graph

Search for Another Location

Airport or City:

Trip Planner

Search our weather history database for the weather conditions in past years. The results will help you decide how hot, cold, wet, or windy it might be!

Date:

Astronomy

Aug. 09, 2014 Rise Set
Actual Time 6:17 AM CDT 8:22 PM CDT
Civil Twilight 5:46 AM CDT 8:52 PM CDT
Nautical Twilight 5:09 AM CDT 9:29 PM CDT
Astronomical Twilight 4:28 AM CDT 10:10 PM CDT
Moon 7:23 PM CDT (8/9) 4:58 AM CDT (8/9)
Length of Visible Light 15h 05m
Length of Day
14h 04m
Waxing Gibbous, 98% of the Moon is Illuminated
Aug 9
Waxing Gibbous
Aug 10
Full
Aug 17
Last Quarter
Aug 25
New
Sep 2
First Quarter

Hourly Weather History & Observations

Time (CDT) Temp. Dew Point Humidity Pressure Visibility Wind Dir Wind Speed Gust Speed Precip Events Conditions
12:54 AM 71.1 °F 64.9 °F 81% 30.01 in 10.0 mi ESE 5.8 mph - N/A   Mostly Cloudy
1:54 AM 72.0 °F 66.0 °F 81% 30.00 in 9.0 mi East 4.6 mph - N/A   Overcast
2:54 AM 70.0 °F 64.9 °F 84% 30.00 in 8.0 mi East 3.5 mph - N/A   Scattered Clouds
3:54 AM 69.1 °F 64.9 °F 87% 30.01 in 7.0 mi ENE 3.5 mph - N/A   Partly Cloudy
4:54 AM 68.0 °F 64.0 °F 87% 30.01 in 6.0 mi ENE 5.8 mph - N/A   Clear
5:54 AM 68.0 °F 63.0 °F 84% 30.02 in 7.0 mi ENE 5.8 mph - N/A   Mostly Cloudy
6:54 AM 68.0 °F 62.1 °F 81% 30.03 in 6.0 mi East 6.9 mph - N/A   Haze
7:54 AM 68.0 °F 62.1 °F 81% 30.03 in 7.0 mi East 5.8 mph - N/A   Overcast
8:54 AM 69.1 °F 62.1 °F 78% 30.04 in 7.0 mi East 9.2 mph - N/A   Overcast
9:54 AM 70.0 °F 62.1 °F 76% 30.04 in 7.0 mi East 6.9 mph - N/A   Overcast
10:50 AM 73.4 °F 64.4 °F 73% 30.07 in 8.0 mi ENE 5.8 mph - N/A   Overcast
10:54 AM 73.0 °F 64.0 °F 73% 30.05 in 8.0 mi Variable 5.8 mph - N/A   Overcast
12:54 PM 75.0 °F 64.0 °F 69% 30.05 in 10.0 mi Variable 6.9 mph - 0.00 in   Mostly Cloudy
1:54 PM 77.0 °F 64.0 °F 64% 30.04 in 10.0 mi ESE 11.5 mph - N/A   Overcast
2:54 PM 75.0 °F 64.9 °F 71% 30.04 in 9.0 mi SE 6.9 mph - N/A   Overcast
3:54 PM 77.0 °F 64.0 °F 64% 30.03 in 9.0 mi SE 6.9 mph - N/A   Overcast
4:54 PM 78.1 °F 64.9 °F 64% 30.01 in 10.0 mi ESE 8.1 mph - N/A   Overcast
5:54 PM 79.0 °F 63.0 °F 58% 30.00 in 10.0 mi SE 10.4 mph - N/A   Mostly Cloudy
6:54 PM 77.0 °F 64.0 °F 64% 30.01 in 10.0 mi ESE 5.8 mph - N/A   Overcast
7:54 PM 75.9 °F 64.0 °F 67% 30.01 in 10.0 mi SE 4.6 mph - N/A   Mostly Cloudy
8:54 PM 75.0 °F 64.9 °F 71% 30.01 in 10.0 mi ESE 5.8 mph - N/A   Mostly Cloudy
9:54 PM 73.9 °F 64.9 °F 73% 30.00 in 10.0 mi ESE 5.8 mph - N/A   Clear
10:54 PM 72.0 °F 64.9 °F 78% 30.00 in 9.0 mi East 3.5 mph - N/A   Partly Cloudy
11:54 PM 71.1 °F 64.9 °F 81% 29.99 in 8.0 mi East 4.6 mph - N/A   Scattered Clouds